User: anonymous   Login
Location: Unspecified
(0.0000°N, 0.0000°E)
Time: 17:16:07
(UTC+00:00)
Language:

Transit VE-3 - Orbit

View from above orbital plane
View from above orbital plane
View from above satellite
View from above satellite

Ground track
Ground track

The orbit data is extracted from the following two-line orbital elements,

1   705U 63049C   23333.80732400  .00000154  00000-0  23587-3 0  9990
2   705  89.9137  78.3309 0035162  54.2316  58.6874 13.47474491947359
Epoch (UTC): 29 November 2023 19:22:32
Eccentricity: 0.0035162
inclination: 89.9137°
perigee height: 1055 km
apogee height: 1108 km
right ascension of ascending node: 78.3309°
argument of perigee: 54.2316°
revolutions per day: 13.47474491
mean anomaly at epoch: 58.6874°
orbit number at epoch: 94735

The dashed part of the orbit path shows where the satellite is in the earth's shadow,  

DLR